Weather at Columbia Airport

Public forecast

Using degrees Fahrenheit for public forecast. Weather courtesy of forecast.io.

Current aviation weather report (METAR) for Columbia Airport

Retrieved UTC (0 seconds ago):

Closest aviation forecast (TAF) to Columbia Airport

Closest forecast is Modesto City Co-Harry Sham Field, 35.3 nm (65.3 km) SW. Retrieved 2021/01/21 12:22 UTC (5 hours ago):

TAF KMOD 211120Z 2112/2212 14003KT P6SM FEW250